Minnesota City, MN

4:30 AM CST on February 12, 2016 (GMT -0600)
Winona Municipal-Conrad

Weather History for KONA - July, 2013

Change the Weather History Date:

Wednesday, July 10, 2013

  Actual Average Record
Temperature  
Mean Temperature 69 °F -  
Max Temperature 78 °F 84 °F 101 °F (1976)
Min Temperature 60 °F 63 °F 48 °F (1996)
Cooling Degree Days 4    
Growing Degree Days 19 (Base 50)    
Moisture  
Dew Point 56 °F    
Average Humidity 56    
Maximum Humidity 82    
Minimum Humidity 36    
Precipitation  
Precipitation 0.00 in - - ()
Sea Level Pressure  
Sea Level Pressure 29.99 in    
Wind  
Wind Speed 9 mph (NW)    
Max Wind Speed 16 mph    
Max Gust Speed 26 mph    
Visibility 10 miles    
Events      
Averages and records for this station are not official NWS values.
T = Trace of Precipitation, MM = Missing Value Source: NWS Daily Summary

Daily Weather History Graph

Daily Weather History Graph

Search for Another Location

Airport or City:

Trip Planner

Search our weather history database for the weather conditions in past years. The results will help you decide how hot, cold, wet, or windy it might be!

Date:

Astronomy

Jul. 10, 2013 Rise Set
Actual Time 5:33 AM CDT 8:50 PM CDT
Civil Twilight 4:58 AM CDT 9:25 PM CDT
Nautical Twilight 4:12 AM CDT 10:11 PM CDT
Astronomical Twilight 3:15 AM CDT 11:08 PM CDT
Moon 8:01 AM CDT (7/10) 9:52 PM CDT (7/10)
Length of Visible Light 16h 27m
Length of Day
15h 16m
Waxing Crescent, 5% of the Moon is Illuminated
Jul 10
Waxing Crescent
Jul 15
First Quarter
Jul 22
Full
Jul 29
Last Quarter
Aug 6
New

Hourly Weather History & Observations

Time (CDT) Temp. Dew Point Humidity Pressure Visibility Wind Dir Wind Speed Gust Speed Precip Events Conditions
12:00 AM 77.0 °F 66.2 °F 69% 29.88 in 10.0 mi WNW 10.4 mph - N/A   Clear
12:20 AM 77.0 °F 66.2 °F 69% 29.88 in 10.0 mi WNW 12.7 mph - N/A   Clear
12:40 AM 77.0 °F 66.2 °F 69% 29.88 in 10.0 mi WNW 8.1 mph 16.1 mph N/A   Clear
1:00 AM 77.0 °F 66.2 °F 69% 29.89 in 10.0 mi WNW 9.2 mph - N/A   Clear
1:20 AM 75.2 °F 64.4 °F 69% 29.89 in 10.0 mi WNW 9.2 mph 16.1 mph N/A   Clear
1:40 AM 75.2 °F 64.4 °F 69% 29.89 in 10.0 mi WNW 9.2 mph - N/A   Clear
2:00 AM 75.2 °F 66.2 °F 73% 29.90 in 10.0 mi NW 4.6 mph - N/A   Clear
2:20 AM 75.2 °F 64.4 °F 69% 29.90 in 10.0 mi NW 5.8 mph - N/A   Scattered Clouds
2:40 AM 75.2 °F 64.4 °F 69% 29.91 in 10.0 mi NW 5.8 mph - N/A   Mostly Cloudy
3:00 AM 75.2 °F 66.2 °F 73% 29.91 in 10.0 mi WNW 6.9 mph - N/A   Scattered Clouds
3:20 AM 73.4 °F 64.4 °F 73% 29.91 in 10.0 mi WNW 8.1 mph - N/A   Scattered Clouds
3:40 AM 73.4 °F 64.4 °F 73% 29.92 in 10.0 mi WNW 6.9 mph - N/A   Scattered Clouds
4:00 AM 71.6 °F 62.6 °F 73% 29.92 in 10.0 mi WNW 6.9 mph - N/A   Mostly Cloudy
4:20 AM 71.6 °F 62.6 °F 73% 29.93 in 10.0 mi NW 8.1 mph - N/A   Scattered Clouds
4:40 AM 69.8 °F 60.8 °F 73% 29.94 in 10.0 mi NNW 6.9 mph - N/A   Clear
5:00 AM 69.8 °F 59.0 °F 68% 29.95 in 10.0 mi NNW 16.1 mph - N/A   Mostly Cloudy
5:20 AM 69.8 °F 59.0 °F 68% 29.96 in 10.0 mi NNW 10.4 mph - N/A   Mostly Cloudy
5:40 AM 69.8 °F 60.8 °F 73% 29.96 in 10.0 mi NW 8.1 mph - N/A   Mostly Cloudy
6:00 AM 69.8 °F 59.0 °F 68% 29.97 in 10.0 mi NW 10.4 mph 17.3 mph N/A   Overcast
6:20 AM 69.8 °F 59.0 °F 68% 29.97 in 10.0 mi North 11.5 mph 19.6 mph N/A   Mostly Cloudy
6:40 AM 69.8 °F 59.0 °F 68% 29.98 in 10.0 mi North 6.9 mph - N/A   Mostly Cloudy
7:00 AM 69.8 °F 57.2 °F 64% 29.99 in 10.0 mi NNW 12.7 mph 26.5 mph N/A   Mostly Cloudy
7:20 AM 69.8 °F 57.2 °F 64% 29.99 in 10.0 mi NW 10.4 mph 18.4 mph N/A   Scattered Clouds
7:40 AM 69.8 °F 55.4 °F 60% 30.00 in 10.0 mi NNW 15.0 mph 24.2 mph N/A   Clear
8:00 AM 69.8 °F 55.4 °F 60% 30.00 in 10.0 mi NNW 13.8 mph 18.4 mph N/A   Clear
8:20 AM 69.8 °F 55.4 °F 60% 30.01 in 10.0 mi NNW 9.2 mph - N/A   Clear
8:40 AM 69.8 °F 55.4 °F 60% 30.02 in 10.0 mi North 8.1 mph 16.1 mph N/A   Clear
9:00 AM 69.8 °F 53.6 °F 56% 30.02 in 10.0 mi NNW 10.4 mph 18.4 mph N/A   Clear
9:20 AM 69.8 °F 53.6 °F 56% 30.01 in 10.0 mi NW 10.4 mph - N/A   Clear
9:40 AM 71.6 °F 53.6 °F 53% 30.01 in 10.0 mi North 8.1 mph - N/A   Clear
10:00 AM 71.6 °F 51.8 °F 50% 30.01 in 10.0 mi NNW 13.8 mph 19.6 mph N/A   Clear
10:20 AM 75.2 °F 53.6 °F 47% 30.01 in 10.0 mi NNW 12.7 mph 21.9 mph N/A   Clear
10:40 AM 75.2 °F 53.6 °F 47% 30.01 in 10.0 mi NNW 9.2 mph 17.3 mph N/A   Clear
10:52 AM 73.4 °F 53.6 °F 50% 30.01 in 10.0 mi NNW 8.1 mph 19.6 mph N/A   Clear
10:55 AM 73.4 °F 53.6 °F 50% 30.01 in 10.0 mi NW 12.7 mph 19.6 mph N/A   Clear
11:15 AM 73.4 °F 53.6 °F 50% 30.01 in 10.0 mi NW 9.2 mph 23.0 mph N/A   Clear
11:34 AM 73.4 °F 53.6 °F 50% 30.01 in 10.0 mi NNW 8.1 mph - N/A   Scattered Clouds
11:52 AM 75.2 °F 51.8 °F 44% 30.01 in 10.0 mi NW 13.8 mph 17.3 mph N/A   Clear
12:20 PM 77.0 °F 51.8 °F 41% 30.01 in 10.0 mi NNW 9.2 mph 19.6 mph N/A   Clear
12:40 PM 77.0 °F 50.0 °F 39% 30.01 in 10.0 mi NNW 11.5 mph 18.4 mph N/A   Clear
1:00 PM 77.0 °F 51.8 °F 41% 30.01 in 10.0 mi NW 12.7 mph 19.6 mph N/A   Clear
1:05 PM 77.0 °F 51.8 °F 41% 30.01 in 10.0 mi NW 12.7 mph 20.7 mph N/A   Clear
1:15 PM 77.0 °F 50.0 °F 39% 30.01 in 10.0 mi NNW 10.4 mph 20.7 mph N/A   Scattered Clouds
1:35 PM 77.0 °F 50.0 °F 39% 30.01 in 10.0 mi NNW 12.7 mph 19.6 mph N/A   Clear
1:56 PM 77.0 °F 50.0 °F 39% 30.01 in 10.0 mi NW 12.7 mph 16.1 mph N/A   Clear
2:15 PM 77.0 °F 50.0 °F 39% 30.01 in 10.0 mi NW 12.7 mph 19.6 mph N/A   Clear
2:35 PM 78.8 °F 51.8 °F 39% 30.02 in 10.0 mi NW 10.4 mph - N/A   Clear
2:56 PM 78.8 °F 51.8 °F 39% 30.02 in 10.0 mi NNW 5.8 mph - N/A   Clear
3:15 PM 78.8 °F 51.8 °F 39% 30.02 in 10.0 mi WNW 10.4 mph 16.1 mph N/A   Scattered Clouds
3:35 PM 78.8 °F 50.0 °F 36% 30.01 in 10.0 mi NW 11.5 mph 16.1 mph N/A   Scattered Clouds
3:55 PM 78.8 °F 51.8 °F 39% 30.01 in 10.0 mi NW 8.1 mph - N/A   Scattered Clouds
4:15 PM 78.8 °F 51.8 °F 39% 30.01 in 10.0 mi NW 11.5 mph - N/A   Scattered Clouds
4:35 PM 78.8 °F 53.6 °F 42% 30.00 in 10.0 mi NW 8.1 mph - N/A   Scattered Clouds
4:55 PM 78.8 °F 51.8 °F 39% 30.01 in 10.0 mi NW 9.2 mph - N/A   Scattered Clouds
5:15 PM 78.8 °F 51.8 °F 39% 30.01 in 10.0 mi NW 8.1 mph - N/A   Scattered Clouds
5:35 PM 78.8 °F 51.8 °F 39% 30.00 in 10.0 mi WNW 4.6 mph - N/A   Scattered Clouds
5:55 PM 78.8 °F 51.8 °F 39% 30.00 in 10.0 mi NNW 5.8 mph - N/A   Scattered Clouds
6:15 PM 77.0 °F 50.0 °F 39% 30.00 in 10.0 mi NW 10.4 mph - N/A   Scattered Clouds
6:35 PM 77.0 °F 51.8 °F 41% 30.00 in 10.0 mi NW 9.2 mph - N/A   Scattered Clouds
6:55 PM 77.0 °F 51.8 °F 41% 30.00 in 10.0 mi NW 6.9 mph - N/A   Clear
7:15 PM 77.0 °F 51.8 °F 41% 30.01 in 10.0 mi NW 6.9 mph - N/A   Clear
7:35 PM 77.0 °F 53.6 °F 44% 30.01 in 10.0 mi NW 5.8 mph - N/A   Scattered Clouds
7:55 PM 73.4 °F 53.6 °F 50% 30.01 in 10.0 mi WNW 5.8 mph - N/A   Scattered Clouds
8:15 PM 75.2 °F 53.6 °F 47% 30.01 in 10.0 mi WNW 3.5 mph - N/A   Scattered Clouds
8:35 PM 73.4 °F 53.6 °F 50% 30.00 in 10.0 mi Calm Calm - N/A   Clear
8:55 PM 73.4 °F 55.4 °F 53% 30.01 in 10.0 mi Calm Calm - N/A   Clear
9:15 PM 69.8 °F 55.4 °F 60% 30.01 in 10.0 mi Calm Calm - N/A   Clear
9:35 PM 69.8 °F 53.6 °F 56% 30.02 in 10.0 mi NW 3.5 mph - N/A   Clear
9:55 PM 69.8 °F 59.0 °F 68% 30.02 in 10.0 mi Calm Calm - N/A   Clear
10:15 PM 64.4 °F 57.2 °F 77% 30.03 in 10.0 mi Calm Calm - N/A   Clear
10:35 PM 62.6 °F 57.2 °F 82% 30.03 in 10.0 mi Calm Calm - N/A   Clear
10:55 PM 62.6 °F 57.2 °F 82% 30.04 in 10.0 mi Calm Calm - N/A   Clear
11:15 PM 60.8 °F 55.4 °F 82% 30.04 in 10.0 mi NW 3.5 mph - N/A   Clear
11:35 PM 62.6 °F 55.4 °F 77% 30.04 in 10.0 mi NW 3.5 mph - N/A   Clear
11:55 PM 60.8 °F 55.4 °F 82% 30.05 in 10.0 mi NW 3.5 mph - N/A   Clear